Hourly Data Report for October 29, 2016

All times are specified in Local Standard Time (LST). Add 1 hour to adjust for Daylight Saving Time where and when it is observed.

BATHURST A
NEW BRUNSWICK

47°37'47.000" N
65°44'20.000" W
58.80 m
8100505
71574
ZBF

Download Data

Hourly Data (October 2016)
Hourly Data Report for October 29, 2016
Temp Definition
°C
Dew Point Temp Definition
°C
Rel Hum Definition
%
Wind Dir Definition
10's deg

Wind Spd Definition
km/h
Visibility Definition
km
Stn Press Definition
kPa
Hmdx Definition


Wind Chill Definition


Weather Definition


TIME
00:00 Legend Double Dagger 0.9 0.8 99 36 2 24.1 101.48     LegendNANA
01:00 Legend Double Dagger 2.2 2.1 99 9 3 16.1 101.42     LegendNANA
02:00 Legend Double Dagger 3.8 3.5 98 5 4 12.9 101.34     Cloudy
03:00 Legend Double Dagger 4.2 4.1 99 35 4 4.8 101.33     Drizzle,Fog
04:00 Legend Double Dagger 4.4 4.3 99 1 6 1.6 101.30     Drizzle,Fog
05:00 Legend Double Dagger 4.8 4.7 99 5 5 1.6 101.26     Drizzle,Fog
06:00 Legend Double Dagger 5.1 5.0 99 7 9 6.4 101.20     Fog
07:00 Legend Double Dagger 5.0 4.6 97 6 5 16.1 101.09     LegendNANA
08:00 Legend Double Dagger 5.3 4.9 97 2 4 19.3 101.09     Cloudy
09:00 Legend Double Dagger 6.0 5.0 93 2 8 16.1 101.05     Rain Showers
10:00 Legend Double Dagger 6.3 5.0 91 4 14 12.9 101.00     Drizzle
11:00 Legend Double Dagger 6.1 5.5 96 5 14 12.9 100.93     Drizzle
12:00 Legend Double Dagger 6.0 5.4 96 4 12 4.8 100.81     Drizzle,Fog
13:00 Legend Double Dagger 6.1 5.8 98 3 9 2.8 100.71     Rain,Fog
14:00 Legend Double Dagger 6.4 6.1 98 3 9 2.4 100.59     Rain,Fog
15:00 Legend Double Dagger 6.5 6.2 98 2 9 2.0 100.53     Drizzle,Fog
16:00 Legend Double Dagger 6.4 6.1 98 1 6 4.0 100.43     Drizzle,Fog
17:00 Legend Double Dagger 5.7 5.4 98 34 8 2.8 100.35     Drizzle,Fog
18:00 Legend Double Dagger 5.6 5.5 99 32 4 3.2 100.25     Rain,Fog
19:00 Legend Double Dagger 5.7 5.6 99 36 6 1.0 100.12     Drizzle,Fog
20:00 Legend Double Dagger 6.1 6.0 99 35 7 0.6 100.00     Drizzle,Fog
21:00 Legend Double Dagger 6.4 6.4 100 33 3 0.4 99.94     Fog
22:00 Legend Double Dagger 6.7 6.7 100 30 7 0.2 99.90     Drizzle,Fog
23:00 Legend Double Dagger 6.4 6.4 100 31 9 1.6 99.83     Rain,Fog

Notes on Data Quality.

Legend

  • E = Estimated
  • M = Missing
  • NA = Not Available
  • ‡ = Partner data that is not subject to review by the National Climate Archives
Date modified: